METEOSAT-11 (MSG-4)

Last updated on Jan. 25, 2020, 4:42 a.m. UTC

1 40732U 15034A   20024.33597867 -.00000005  00000-0  00000+0 0  9990
2 40732   0.6100 236.0071 0000640 126.7703 241.8621  1.00281195 16615
UTC
Height (km)
Latitude
Longitude
Inclination
Orbital Period
UTC large
Height (km)
Speed (km/s)
/
Latitude / Longitude
Inclination (degrees)
Orbital Period (minutes)
Azimuth
Elevation
Range (km)
Doppler Factor
iOS Compass Heading
iOS Angle

Next 30 passes for location: Hong Kong

Rise time Rise Azimuth (degrees) Set time Set Azimuth (degrees) Duration Max altitude (degrees)

No matching passes for this satellites